Location: Ellerstadt
(49.4644°N, 8.2615°E)
Time: 01:07:30
(UTC+00:00)

ISS - Pass Details

Date: 19 May 2021
Orbit: 417 x 422 km, 51.6° (Epoch: 15 June)

Event Time Altitude Azimuth Distance (km) Brightness Sun altitude
Rises 21:41:23 0° 275° (W) 2,367 0.5 -17.0°
Reaches altitude 10° 21:43:31 10° 280° (W) 1,504 -0.5 -17.1°
Maximum altitude 21:46:50 57° 360° (N) 504 -3.1 -17.3°
Enters shadow 21:50:09 10° 80° (E) 1,492 -1.1 -17.5°
